星链-11235 (STARLINK-11235)

导读 | 豆包AI

STARLINK-11235是美国SpaceX公司星链(Starlink)第二代星座的通信卫星,于2024年8月28日在美国范登堡太空军基地由猎鹰9号火箭发射升空。卫星运行在近地轨道,采用平板设计,搭载Ku/Ka波段相控阵通信天线与激光星间链路,以氪工质霍尔推进器实现轨道机动与离轨控制,旨在为全球提供高速低延迟宽带互联网服务,是SpaceX大规模部署低轨通信星座的组成部分。

基本信息
目录编号:
60726
目录名称:
STARLINK-11235
国际标识:
2024-152G
轨道中心:
EARTH
卫星名称:
星链-11235 (STARLINK-11235)
卫星全名:
星链-11235 (STARLINK-11235)
卫星状态:
在轨 (已飞行610 天)
发射日期:
2024-08-28 UTC
国别 :
美国 (US)
星等 :
--
轨道信息
数据来源 国际轨道数据 AOE轨道数据
星历时间 2026-04-30T07:54:22+0800
9小时前
查看轨道信息
2026-04-30T08:00:00+0800
9小时前
查看轨道信息
半长轴 6737.859km 6737.797km
偏心率 0.0001059 0.0001744
轨道倾角 53.159° 53.143°
近地点辐角 80.456° 4.595°
升交点赤经 223.307° 223.286°
平近点角 279.658° 17.647°
近地点 359.008km 358.484km
远地点 360.436km 360.836km
周期 91.737分钟 91.735分钟
每日圈数 15.69712 15.697335
详细信息
卫星平台:
Starlink v2.0 mini
运营商:
太空探索技术公司
运营商所在国:
美国
制造商(研发单位):
太空探索技术公司
制造商所在国:
美国
使用方式:
暂无
卫星简介
星链(Starlink)计划是由太空探索技术公司(SpaceX)提出的一个巨型低轨卫星互联网星座项目,计划在2019年至2024年间在太空搭建由约1.2万颗卫星组成的“星链”网络,其中1584颗将部署在地球上空550千米处的近地轨道,并从2020年开始工作。该卫星仍在工作。
2D轨道图
3D轨道图
轨道高度分析图
轨道倾角分析图
轨道综合分析图
查看轨道综合分析图